Year,Month,Day,Hour,Minute,Value (Times are PST for windgust in km/hr)
2011,07,07,00,00,3.20
2011,07,07,00,01,3.20
2011,07,07,00,02,4.80
2011,07,07,00,03,4.80
2011,07,07,00,04,4.80
2011,07,07,00,05,4.80
2011,07,07,00,06,4.80
2011,07,07,00,07,1.60
2011,07,07,00,08,4.80
2011,07,07,00,09,4.80
2011,07,07,00,10,1.60
2011,07,07,00,12,1.60
2011,07,07,00,15,1.60
2011,07,07,00,29,1.60
2011,07,07,00,34,1.60
2011,07,07,00,37,1.60
2011,07,07,00,38,1.60
2011,07,07,00,39,3.20
2011,07,07,00,40,3.20
2011,07,07,00,41,1.60
2011,07,07,00,43,3.20
2011,07,07,00,44,3.20
2011,07,07,00,45,6.40
2011,07,07,00,46,4.80
2011,07,07,00,47,4.80
2011,07,07,00,48,1.60
2011,07,07,00,49,4.80
2011,07,07,00,50,1.60
2011,07,07,00,51,1.60
2011,07,07,00,52,3.20
2011,07,07,00,53,1.60
2011,07,07,00,54,3.20
2011,07,07,00,55,3.20
2011,07,07,00,56,1.60
2011,07,07,00,57,3.20
2011,07,07,00,59,1.60
2011,07,07,01,00,4.80
2011,07,07,01,01,1.60
2011,07,07,01,02,1.60
2011,07,07,01,04,1.60
2011,07,07,01,06,1.60
2011,07,07,01,07,1.60
2011,07,07,01,08,1.60
2011,07,07,01,09,1.60
2011,07,07,01,10,1.60
2011,07,07,01,11,3.20
2011,07,07,01,12,4.80
2011,07,07,01,13,4.80
2011,07,07,01,14,4.80
2011,07,07,01,15,3.20
2011,07,07,01,16,1.60
2011,07,07,01,17,3.20
2011,07,07,01,18,1.60
2011,07,07,01,19,8.10
2011,07,07,01,20,6.40
2011,07,07,01,21,4.80
2011,07,07,01,22,4.80
2011,07,07,01,23,6.40
2011,07,07,01,24,4.80
2011,07,07,01,25,3.20
2011,07,07,01,26,3.20
2011,07,07,01,27,3.20
2011,07,07,01,28,4.80
2011,07,07,01,29,4.80
2011,07,07,01,30,6.40
2011,07,07,01,31,1.60
2011,07,07,01,32,6.40
2011,07,07,01,33,4.80
2011,07,07,01,34,4.80
2011,07,07,01,35,3.20
2011,07,07,01,36,3.20
2011,07,07,01,37,4.80
2011,07,07,01,38,1.60
2011,07,07,01,39,3.20
2011,07,07,01,40,1.60
2011,07,07,01,41,3.20
2011,07,07,01,42,4.80
2011,07,07,01,43,4.80
2011,07,07,01,44,3.20
2011,07,07,01,45,4.80
2011,07,07,01,46,1.60
2011,07,07,01,47,1.60
2011,07,07,01,48,4.80
2011,07,07,01,49,1.60
2011,07,07,01,50,3.20
2011,07,07,01,51,4.80
2011,07,07,01,52,8.10
2011,07,07,01,53,3.20
2011,07,07,01,54,3.20
2011,07,07,01,55,4.80
2011,07,07,01,56,1.60
2011,07,07,01,57,3.20
2011,07,07,01,58,4.80
2011,07,07,01,59,6.40
2011,07,07,02,00,3.20
2011,07,07,02,01,4.80
2011,07,07,02,02,1.60
2011,07,07,02,03,3.20
2011,07,07,02,04,3.20
2011,07,07,02,05,4.80
2011,07,07,02,06,4.80
2011,07,07,02,07,3.20
2011,07,07,02,08,9.60
2011,07,07,02,09,6.40
2011,07,07,02,10,6.40
2011,07,07,02,11,6.40
2011,07,07,02,12,4.80
2011,07,07,02,13,3.20
2011,07,07,02,14,6.40
2011,07,07,02,15,3.20
2011,07,07,02,16,1.60
2011,07,07,02,17,3.20
2011,07,07,02,18,4.80
2011,07,07,02,19,1.60
2011,07,07,02,20,3.20
2011,07,07,02,21,11.30
2011,07,07,02,22,9.60
2011,07,07,02,23,14.50
2011,07,07,02,24,9.60
2011,07,07,02,25,16.10
2011,07,07,02,26,11.30
2011,07,07,02,27,11.30
2011,07,07,02,28,11.30
2011,07,07,02,29,9.60
2011,07,07,02,30,11.30
2011,07,07,02,31,16.10
2011,07,07,02,32,8.10
2011,07,07,02,33,11.30
2011,07,07,02,34,12.90
2011,07,07,02,35,4.80
2011,07,07,02,36,8.10
2011,07,07,02,37,4.80
2011,07,07,02,38,9.60
2011,07,07,02,39,3.20
2011,07,07,02,40,6.40
2011,07,07,02,41,6.40
2011,07,07,02,42,3.20
2011,07,07,02,43,6.40
2011,07,07,02,44,6.40
2011,07,07,02,45,6.40
2011,07,07,02,46,6.40
2011,07,07,02,47,6.40
2011,07,07,02,48,8.10
2011,07,07,02,49,6.40
2011,07,07,02,50,4.80
2011,07,07,02,51,14.50
2011,07,07,02,52,9.60
2011,07,07,02,53,4.80
2011,07,07,02,54,4.80
2011,07,07,02,55,11.30
2011,07,07,02,56,11.30
2011,07,07,02,57,6.40
2011,07,07,02,58,4.80
2011,07,07,02,59,6.40
2011,07,07,03,00,4.80
2011,07,07,03,01,4.80
2011,07,07,03,02,3.20
2011,07,07,03,03,4.80
2011,07,07,03,04,4.80
2011,07,07,03,05,6.40
2011,07,07,03,06,9.60
2011,07,07,03,07,6.40
2011,07,07,03,08,4.80
2011,07,07,03,09,3.20
2011,07,07,03,10,4.80
2011,07,07,03,11,4.80
2011,07,07,03,12,6.40
2011,07,07,03,13,4.80
2011,07,07,03,14,6.40
2011,07,07,03,15,19.30
2011,07,07,03,16,8.10
2011,07,07,03,17,4.80
2011,07,07,03,18,9.60
2011,07,07,03,19,6.40
2011,07,07,03,20,6.40
2011,07,07,03,21,6.40
2011,07,07,03,22,9.60
2011,07,07,03,23,8.10
2011,07,07,03,24,11.30
2011,07,07,03,25,9.60
2011,07,07,03,26,9.60
2011,07,07,03,27,11.30
2011,07,07,03,28,4.80
2011,07,07,03,29,6.40
2011,07,07,03,30,9.60
2011,07,07,03,31,11.30
2011,07,07,03,32,4.80
2011,07,07,03,33,4.80
2011,07,07,03,34,6.40
2011,07,07,03,35,4.80
2011,07,07,03,36,4.80
2011,07,07,03,37,9.60
2011,07,07,03,38,11.30
2011,07,07,03,39,4.80
2011,07,07,03,40,8.10
2011,07,07,03,41,6.40
2011,07,07,03,42,4.80
2011,07,07,03,43,9.60
2011,07,07,03,44,9.60
2011,07,07,03,45,3.20
2011,07,07,03,46,4.80
2011,07,07,03,47,6.40
2011,07,07,03,48,8.10
2011,07,07,03,49,8.10
2011,07,07,03,50,4.80
2011,07,07,03,51,6.40
2011,07,07,03,52,6.40
2011,07,07,03,53,4.80
2011,07,07,03,54,6.40
2011,07,07,03,55,6.40
2011,07,07,03,56,4.80
2011,07,07,03,57,8.10
2011,07,07,03,58,6.40
2011,07,07,03,59,6.40
2011,07,07,04,00,6.40
2011,07,07,04,01,14.50
2011,07,07,04,02,8.10
2011,07,07,04,03,4.80
2011,07,07,04,04,3.20
2011,07,07,04,05,3.20
2011,07,07,04,06,11.30
2011,07,07,04,07,6.40
2011,07,07,04,08,8.10
2011,07,07,04,09,9.60
2011,07,07,04,10,8.10
2011,07,07,04,11,8.10
2011,07,07,04,12,8.10
2011,07,07,04,13,8.10
2011,07,07,04,14,12.90
2011,07,07,04,15,9.60
2011,07,07,04,16,12.90
2011,07,07,04,17,6.40
2011,07,07,04,18,8.10
2011,07,07,04,19,4.80
2011,07,07,04,20,8.10
2011,07,07,04,21,9.60
2011,07,07,04,22,6.40
2011,07,07,04,23,9.60
2011,07,07,04,24,9.60
2011,07,07,04,25,17.70
2011,07,07,04,26,12.90
2011,07,07,04,27,8.10
2011,07,07,04,28,4.80
2011,07,07,04,29,3.20
2011,07,07,04,30,4.80
2011,07,07,04,31,6.40
2011,07,07,04,32,6.40
2011,07,07,04,33,9.60
2011,07,07,04,34,8.10
2011,07,07,04,35,6.40
2011,07,07,04,36,6.40
2011,07,07,04,37,11.30
2011,07,07,04,38,3.20
2011,07,07,04,39,8.10
2011,07,07,04,40,6.40
2011,07,07,04,41,6.40
2011,07,07,04,42,6.40
2011,07,07,04,43,9.60
2011,07,07,04,44,11.30
2011,07,07,04,45,4.80
2011,07,07,04,46,8.10
2011,07,07,04,47,8.10
2011,07,07,04,48,9.60
2011,07,07,04,49,8.10
2011,07,07,04,50,4.80
2011,07,07,04,51,9.60
2011,07,07,04,52,6.40
2011,07,07,04,53,8.10
2011,07,07,04,54,11.30
2011,07,07,04,55,4.80
2011,07,07,04,56,6.40
2011,07,07,04,57,4.80
2011,07,07,04,58,3.20
2011,07,07,04,59,4.80
2011,07,07,05,00,8.10
2011,07,07,05,01,8.10
2011,07,07,05,02,11.30
2011,07,07,05,03,16.10
2011,07,07,05,04,9.60
2011,07,07,05,05,9.60
2011,07,07,05,06,8.10
2011,07,07,05,07,6.40
2011,07,07,05,08,8.10
2011,07,07,05,09,11.30
2011,07,07,05,10,6.40
2011,07,07,05,11,6.40
2011,07,07,05,12,8.10
2011,07,07,05,13,4.80
2011,07,07,05,14,8.10
2011,07,07,05,15,14.50
2011,07,07,05,16,12.90
2011,07,07,05,17,6.40
2011,07,07,05,18,11.30
2011,07,07,05,19,9.60
2011,07,07,05,20,9.60
2011,07,07,05,21,6.40
2011,07,07,05,22,6.40
2011,07,07,05,23,6.40
2011,07,07,05,24,6.40
2011,07,07,05,25,9.60
2011,07,07,05,26,8.10
2011,07,07,05,27,8.10
2011,07,07,05,28,6.40
2011,07,07,05,29,8.10
2011,07,07,05,30,8.10
2011,07,07,05,31,4.80
2011,07,07,05,32,11.30
2011,07,07,05,33,9.60
2011,07,07,05,34,9.60
2011,07,07,05,35,8.10
2011,07,07,05,36,6.40
2011,07,07,05,37,8.10
2011,07,07,05,38,8.10
2011,07,07,05,39,8.10
2011,07,07,05,40,8.10
2011,07,07,05,41,6.40
2011,07,07,05,42,9.60
2011,07,07,05,43,8.10
2011,07,07,05,44,6.40
2011,07,07,05,45,6.40
2011,07,07,05,46,8.10
2011,07,07,05,47,9.60
2011,07,07,05,48,9.60
2011,07,07,05,49,9.60
2011,07,07,05,50,8.10
2011,07,07,05,51,6.40
2011,07,07,05,52,8.10
2011,07,07,05,53,6.40
2011,07,07,05,54,6.40
2011,07,07,05,55,6.40
2011,07,07,05,56,8.10
2011,07,07,05,57,6.40
2011,07,07,05,58,8.10
2011,07,07,05,59,8.10
2011,07,07,06,00,4.80
2011,07,07,06,01,8.10
2011,07,07,06,02,6.40
2011,07,07,06,03,8.10
2011,07,07,06,04,8.10
2011,07,07,06,05,6.40
2011,07,07,06,06,9.60
2011,07,07,06,07,8.10
2011,07,07,06,08,11.30
2011,07,07,06,09,8.10
2011,07,07,06,10,9.60
2011,07,07,06,11,8.10
2011,07,07,06,12,8.10
2011,07,07,06,13,8.10
2011,07,07,06,14,8.10
2011,07,07,06,15,6.40
2011,07,07,06,16,6.40
2011,07,07,06,17,4.80
2011,07,07,06,18,8.10
2011,07,07,06,19,9.60
2011,07,07,06,20,9.60
2011,07,07,06,21,8.10
2011,07,07,06,22,11.30
2011,07,07,06,23,9.60
2011,07,07,06,24,8.10
2011,07,07,06,25,6.40
2011,07,07,06,26,4.80
2011,07,07,06,27,6.40
2011,07,07,06,28,6.40
2011,07,07,06,29,6.40
2011,07,07,06,30,8.10
2011,07,07,06,31,6.40
2011,07,07,06,32,8.10
2011,07,07,06,33,16.10
2011,07,07,06,34,6.40
2011,07,07,06,35,6.40
2011,07,07,06,36,8.10
2011,07,07,06,37,9.60
2011,07,07,06,38,9.60
2011,07,07,06,39,14.50
2011,07,07,06,40,4.80
2011,07,07,06,41,8.10
2011,07,07,06,42,8.10
2011,07,07,06,43,8.10
2011,07,07,06,44,9.60
2011,07,07,06,45,6.40
2011,07,07,06,46,6.40
2011,07,07,06,47,6.40
2011,07,07,06,48,9.60
2011,07,07,06,49,9.60
2011,07,07,06,50,14.50
2011,07,07,06,51,6.40
2011,07,07,06,52,11.30
2011,07,07,06,53,6.40
2011,07,07,06,54,8.10
2011,07,07,06,55,8.10
2011,07,07,06,56,9.60
2011,07,07,06,57,17.70
2011,07,07,06,58,16.10
2011,07,07,06,59,11.30
2011,07,07,07,00,8.10
2011,07,07,07,01,16.10
2011,07,07,07,02,20.90
2011,07,07,07,03,8.10
2011,07,07,07,04,4.80
2011,07,07,07,05,9.60
2011,07,07,07,06,17.70
2011,07,07,07,07,17.70
2011,07,07,07,08,17.70
2011,07,07,07,09,14.50
2011,07,07,07,10,9.60
2011,07,07,07,11,11.30
2011,07,07,07,12,9.60
2011,07,07,07,13,8.10
2011,07,07,07,14,8.10
2011,07,07,07,15,17.70
2011,07,07,07,16,6.40
2011,07,07,07,17,11.30
2011,07,07,07,18,22.50
2011,07,07,07,19,9.60
2011,07,07,07,20,9.60
2011,07,07,07,21,11.30
2011,07,07,07,22,12.90
2011,07,07,07,23,9.60
2011,07,07,07,24,8.10
2011,07,07,07,25,9.60
2011,07,07,07,26,17.70
2011,07,07,07,27,9.60
2011,07,07,07,28,11.30
2011,07,07,07,29,9.60
2011,07,07,07,30,11.30
2011,07,07,07,31,9.60
2011,07,07,07,32,16.10
2011,07,07,07,33,8.10
2011,07,07,07,34,14.50
2011,07,07,07,35,11.30
2011,07,07,07,36,9.60
2011,07,07,07,37,14.50
2011,07,07,07,38,8.10
2011,07,07,07,39,8.10
2011,07,07,07,40,9.60
2011,07,07,07,41,17.70
2011,07,07,07,42,11.30
2011,07,07,07,43,16.10
2011,07,07,07,44,11.30
2011,07,07,07,45,14.50
2011,07,07,07,46,9.60
2011,07,07,07,47,17.70
2011,07,07,07,48,11.30
2011,07,07,07,49,8.10
2011,07,07,07,50,11.30
2011,07,07,07,51,11.30
2011,07,07,07,52,6.40
2011,07,07,07,53,6.40
2011,07,07,07,54,16.10
2011,07,07,07,55,8.10
2011,07,07,07,56,8.10
2011,07,07,07,57,6.40
2011,07,07,07,58,6.40
2011,07,07,07,59,4.80
2011,07,07,08,00,11.30
2011,07,07,08,01,11.30
2011,07,07,08,02,11.30
2011,07,07,08,03,6.40
2011,07,07,08,04,16.10
2011,07,07,08,05,8.10
2011,07,07,08,06,8.10
2011,07,07,08,07,9.60
2011,07,07,08,08,9.60
2011,07,07,08,09,9.60
2011,07,07,08,10,8.10
2011,07,07,08,11,9.60
2011,07,07,08,12,17.70
2011,07,07,08,13,11.30
2011,07,07,08,14,8.10
2011,07,07,08,15,9.60
2011,07,07,08,16,12.90
2011,07,07,08,17,16.10
2011,07,07,08,18,20.90
2011,07,07,08,19,14.50
2011,07,07,08,20,16.10
2011,07,07,08,21,8.10
2011,07,07,08,22,16.10
2011,07,07,08,23,17.70
2011,07,07,08,24,12.90
2011,07,07,08,25,12.90
2011,07,07,08,26,8.10
2011,07,07,08,27,6.40
2011,07,07,08,28,8.10
2011,07,07,08,29,6.40
2011,07,07,08,30,11.30
2011,07,07,08,31,9.60
2011,07,07,08,32,16.10
2011,07,07,08,33,16.10
2011,07,07,08,34,12.90
2011,07,07,08,35,11.30
2011,07,07,08,36,8.10
2011,07,07,08,37,4.80
2011,07,07,08,38,8.10
2011,07,07,08,39,16.10
2011,07,07,08,40,6.40
2011,07,07,08,41,6.40
2011,07,07,08,42,9.60
2011,07,07,08,43,14.50
2011,07,07,08,44,14.50
2011,07,07,08,45,11.30
2011,07,07,08,46,9.60
2011,07,07,08,47,8.10
2011,07,07,08,48,11.30
2011,07,07,08,49,8.10
2011,07,07,08,50,9.60
2011,07,07,08,51,17.70
2011,07,07,08,52,11.30
2011,07,07,08,53,11.30
2011,07,07,08,54,9.60
2011,07,07,08,55,17.70
2011,07,07,08,56,9.60
2011,07,07,08,57,4.80
2011,07,07,08,58,9.60
2011,07,07,08,59,8.10
2011,07,07,09,00,11.30
2011,07,07,09,01,8.10
2011,07,07,09,02,14.50
2011,07,07,09,03,20.90
2011,07,07,09,04,11.30
2011,07,07,09,05,20.90
2011,07,07,09,06,4.80
2011,07,07,09,07,16.10
2011,07,07,09,08,9.60
2011,07,07,09,09,16.10
2011,07,07,09,10,9.60
2011,07,07,09,11,8.10
2011,07,07,09,12,6.40
2011,07,07,09,13,11.30
2011,07,07,09,14,14.50
2011,07,07,09,15,19.30
2011,07,07,09,16,11.30
2011,07,07,09,17,11.30
2011,07,07,09,18,12.90
2011,07,07,09,19,19.30
2011,07,07,09,20,17.70
2011,07,07,09,21,24.20
2011,07,07,09,22,9.60
2011,07,07,09,23,8.10
2011,07,07,09,24,11.30
2011,07,07,09,25,22.50
2011,07,07,09,26,20.90
2011,07,07,09,27,16.10
2011,07,07,09,28,20.90
2011,07,07,09,29,11.30
2011,07,07,09,30,9.60
2011,07,07,09,31,19.30
2011,07,07,09,32,11.30
2011,07,07,09,33,17.70
2011,07,07,09,34,9.60
2011,07,07,09,35,8.10
2011,07,07,09,36,6.40
2011,07,07,09,37,17.70
2011,07,07,09,38,9.60
2011,07,07,09,39,11.30
2011,07,07,09,40,19.30
2011,07,07,09,41,16.10
2011,07,07,09,42,12.90
2011,07,07,09,43,17.70
2011,07,07,09,44,14.50
2011,07,07,09,45,17.70
2011,07,07,09,46,24.20
2011,07,07,09,47,11.30
2011,07,07,09,48,19.30
2011,07,07,09,49,24.20
2011,07,07,09,50,17.70
2011,07,07,09,51,11.30
2011,07,07,09,52,11.30
2011,07,07,09,53,19.30
2011,07,07,09,54,16.10
2011,07,07,09,55,19.30
2011,07,07,09,56,19.30
2011,07,07,09,57,19.30
2011,07,07,09,58,17.70
2011,07,07,09,59,16.10
2011,07,07,10,00,9.60
2011,07,07,10,01,14.50
2011,07,07,10,02,14.50
2011,07,07,10,03,8.10
2011,07,07,10,04,22.50
2011,07,07,10,05,12.90
2011,07,07,10,06,9.60
2011,07,07,10,07,14.50
2011,07,07,10,08,11.30
2011,07,07,10,09,16.10
2011,07,07,10,10,19.30
2011,07,07,10,11,24.20
2011,07,07,10,12,16.10
2011,07,07,10,13,11.30
2011,07,07,10,14,12.90
2011,07,07,10,15,16.10
2011,07,07,10,16,19.30
2011,07,07,10,17,17.70
2011,07,07,10,18,19.30
2011,07,07,10,19,17.70
2011,07,07,10,20,25.70
2011,07,07,10,21,11.30
2011,07,07,10,22,8.10
2011,07,07,10,23,27.40
2011,07,07,10,24,32.20
2011,07,07,10,25,25.70
2011,07,07,10,26,19.30
2011,07,07,10,27,24.20
2011,07,07,10,28,16.10
2011,07,07,10,29,25.70
2011,07,07,10,30,14.50
2011,07,07,10,31,29.00
2011,07,07,10,32,17.70
2011,07,07,10,33,22.50
2011,07,07,10,34,17.70
2011,07,07,10,35,14.50
2011,07,07,10,36,24.20
2011,07,07,10,37,24.20
2011,07,07,10,38,19.30
2011,07,07,10,39,12.90
2011,07,07,10,40,16.10
2011,07,07,10,41,9.60
2011,07,07,10,42,9.60
2011,07,07,10,43,16.10
2011,07,07,10,44,17.70
2011,07,07,10,45,19.30
2011,07,07,10,46,11.30
2011,07,07,10,47,11.30
2011,07,07,10,48,11.30
2011,07,07,10,49,20.90
2011,07,07,10,50,25.70
2011,07,07,10,51,20.90
2011,07,07,10,52,19.30
2011,07,07,10,53,8.10
2011,07,07,10,54,16.10
2011,07,07,10,55,24.20
2011,07,07,10,56,22.50
2011,07,07,10,57,20.90
2011,07,07,10,58,27.40
2011,07,07,10,59,20.90
2011,07,07,11,00,19.30
2011,07,07,11,01,11.30
2011,07,07,11,02,27.40
2011,07,07,11,03,19.30
2011,07,07,11,04,16.10
2011,07,07,11,05,24.20
2011,07,07,11,06,11.30
2011,07,07,11,07,9.60
2011,07,07,11,08,16.10
2011,07,07,11,09,20.90
2011,07,07,11,10,16.10
2011,07,07,11,11,17.70
2011,07,07,11,12,19.30
2011,07,07,11,13,24.20
2011,07,07,11,14,24.20
2011,07,07,11,15,24.20
2011,07,07,11,16,14.50
2011,07,07,11,17,17.70
2011,07,07,11,18,19.30
2011,07,07,11,19,14.50
2011,07,07,11,20,14.50
2011,07,07,11,21,17.70
2011,07,07,11,22,20.90
2011,07,07,11,23,11.30
2011,07,07,11,24,19.30
2011,07,07,11,25,9.60
2011,07,07,11,26,24.20
2011,07,07,11,27,20.90
2011,07,07,11,28,24.20
2011,07,07,11,29,25.70
2011,07,07,11,30,25.70
2011,07,07,11,31,9.60
2011,07,07,11,32,16.10
2011,07,07,11,33,22.50
2011,07,07,11,34,22.50
2011,07,07,11,35,16.10
2011,07,07,11,36,19.30
2011,07,07,11,37,25.70
2011,07,07,11,38,17.70
2011,07,07,11,39,33.80
2011,07,07,11,40,19.30
2011,07,07,11,41,20.90
2011,07,07,11,42,20.90
2011,07,07,11,43,20.90
2011,07,07,11,44,22.50
2011,07,07,11,45,22.50
2011,07,07,11,46,30.60
2011,07,07,11,47,27.40
2011,07,07,11,48,24.20
2011,07,07,11,49,22.50
2011,07,07,11,50,25.70
2011,07,07,11,51,20.90
2011,07,07,11,52,24.20
2011,07,07,11,53,25.70
2011,07,07,11,54,22.50
2011,07,07,11,55,11.30
2011,07,07,11,56,19.30
2011,07,07,11,57,22.50
2011,07,07,11,58,27.40
2011,07,07,11,59,19.30
2011,07,07,12,00,24.20
2011,07,07,12,01,17.70
2011,07,07,12,02,17.70
2011,07,07,12,03,20.90
2011,07,07,12,04,17.70
2011,07,07,12,05,17.70
2011,07,07,12,06,27.40
2011,07,07,12,07,19.30
2011,07,07,12,08,27.40
2011,07,07,12,09,29.00
2011,07,07,12,10,20.90
2011,07,07,12,11,19.30
2011,07,07,12,12,22.50
2011,07,07,12,13,20.90
2011,07,07,12,14,37.00
2011,07,07,12,15,17.70
2011,07,07,12,16,25.70
2011,07,07,12,17,20.90
2011,07,07,12,18,19.30
2011,07,07,12,19,16.10
2011,07,07,12,20,24.20
2011,07,07,12,21,22.50
2011,07,07,12,22,24.20
2011,07,07,12,23,24.20
2011,07,07,12,24,17.70
2011,07,07,12,25,17.70
2011,07,07,12,26,33.80
2011,07,07,12,27,27.40
2011,07,07,12,28,27.40
2011,07,07,12,29,19.30
2011,07,07,12,30,30.60
2011,07,07,12,31,27.40
2011,07,07,12,32,20.90
2011,07,07,12,33,27.40
2011,07,07,12,34,24.20
2011,07,07,12,35,27.40
2011,07,07,12,36,25.70
2011,07,07,12,37,24.20
2011,07,07,12,38,24.20
2011,07,07,12,39,25.70
2011,07,07,12,40,29.00
2011,07,07,12,41,25.70
2011,07,07,12,42,29.00
2011,07,07,12,43,22.50
2011,07,07,12,44,30.60
2011,07,07,12,45,32.20
2011,07,07,12,46,19.30
2011,07,07,12,47,16.10
2011,07,07,12,48,25.70
2011,07,07,12,49,29.00
2011,07,07,12,50,27.40
2011,07,07,12,51,25.70
2011,07,07,12,52,22.50
2011,07,07,12,53,25.70
2011,07,07,12,54,32.20
2011,07,07,12,55,20.90
2011,07,07,12,56,22.50
2011,07,07,12,57,25.70
2011,07,07,12,58,35.40
2011,07,07,12,59,27.40
2011,07,07,13,00,29.00
2011,07,07,13,01,19.30
2011,07,07,13,02,24.20
2011,07,07,13,03,19.30
2011,07,07,13,04,25.70
2011,07,07,13,05,19.30
2011,07,07,13,06,25.70
2011,07,07,13,07,24.20
2011,07,07,13,08,27.40
2011,07,07,13,09,25.70
2011,07,07,13,10,25.70
2011,07,07,13,11,27.40
2011,07,07,13,12,17.70
2011,07,07,13,13,12.90
2011,07,07,13,14,27.40
2011,07,07,13,15,24.20
2011,07,07,13,16,40.20
2011,07,07,13,17,37.00
2011,07,07,13,18,32.20
2011,07,07,13,19,25.70
2011,07,07,13,20,30.60
2011,07,07,13,21,37.00
2011,07,07,13,22,30.60
2011,07,07,13,23,19.30
2011,07,07,13,24,24.20
2011,07,07,13,25,27.40
2011,07,07,13,26,19.30
2011,07,07,13,27,20.90
2011,07,07,13,28,40.20
2011,07,07,13,29,20.90
2011,07,07,13,30,29.00
2011,07,07,13,31,33.80
2011,07,07,13,32,22.50
2011,07,07,13,33,27.40
2011,07,07,13,34,24.20
2011,07,07,13,35,32.20
2011,07,07,13,36,22.50
2011,07,07,13,37,19.30
2011,07,07,13,38,24.20
2011,07,07,13,39,22.50
2011,07,07,13,40,27.40
2011,07,07,13,41,35.40
2011,07,07,13,42,27.40
2011,07,07,13,43,40.20
2011,07,07,13,44,32.20
2011,07,07,13,45,30.60
2011,07,07,13,46,30.60
2011,07,07,13,47,22.50
2011,07,07,13,48,29.00
2011,07,07,13,49,22.50
2011,07,07,13,50,20.90
2011,07,07,13,51,20.90
2011,07,07,13,52,30.60
2011,07,07,13,53,33.80
2011,07,07,13,54,22.50
2011,07,07,13,55,17.70
2011,07,07,13,56,14.50
2011,07,07,13,57,22.50
2011,07,07,13,58,27.40
2011,07,07,13,59,27.40
2011,07,07,14,00,25.70
2011,07,07,14,01,14.50
2011,07,07,14,02,22.50
2011,07,07,14,03,22.50
2011,07,07,14,04,16.10
2011,07,07,14,05,20.90
2011,07,07,14,06,33.80
2011,07,07,14,07,30.60
2011,07,07,14,08,27.40
2011,07,07,14,09,19.30
2011,07,07,14,10,20.90
2011,07,07,14,11,17.70
2011,07,07,14,12,20.90
2011,07,07,14,13,20.90
2011,07,07,14,14,22.50
2011,07,07,14,15,32.20
2011,07,07,14,16,33.80
2011,07,07,14,17,17.70
2011,07,07,14,18,16.10
2011,07,07,14,19,37.00
2011,07,07,14,20,22.50
2011,07,07,14,21,27.40
2011,07,07,14,22,20.90
2011,07,07,14,23,19.30
2011,07,07,14,24,16.10
2011,07,07,14,25,30.60
2011,07,07,14,26,37.00
2011,07,07,14,27,24.20
2011,07,07,14,28,16.10
2011,07,07,14,29,19.30
2011,07,07,14,30,22.50
2011,07,07,14,31,19.30
2011,07,07,14,32,24.20
2011,07,07,14,33,25.70
2011,07,07,14,34,16.10
2011,07,07,14,35,33.80
2011,07,07,14,36,29.00
2011,07,07,14,37,16.10
2011,07,07,14,38,25.70
2011,07,07,14,39,48.30
2011,07,07,14,40,19.30
2011,07,07,14,41,32.20
2011,07,07,14,42,27.40
2011,07,07,14,43,22.50
2011,07,07,14,44,25.70
2011,07,07,14,45,27.40
2011,07,07,14,46,40.20
2011,07,07,14,47,27.40
2011,07,07,14,48,33.80
2011,07,07,14,49,32.20
2011,07,07,14,50,33.80
2011,07,07,14,51,33.80
2011,07,07,14,52,35.40
2011,07,07,14,53,38.60
2011,07,07,14,54,20.90
2011,07,07,14,55,27.40
2011,07,07,14,56,32.20
2011,07,07,14,57,24.20
2011,07,07,14,58,38.60
2011,07,07,14,59,40.20
2011,07,07,15,00,29.00
2011,07,07,15,01,20.90
2011,07,07,15,02,37.00
2011,07,07,15,03,32.20
2011,07,07,15,04,33.80
2011,07,07,15,05,32.20
2011,07,07,15,06,27.40
2011,07,07,15,07,16.10
2011,07,07,15,08,30.60
2011,07,07,15,09,30.60
2011,07,07,15,10,30.60
2011,07,07,15,11,32.20
2011,07,07,15,12,16.10
2011,07,07,15,13,43.50
2011,07,07,15,14,38.60
2011,07,07,15,15,38.60
2011,07,07,15,16,25.70
2011,07,07,15,17,38.60
2011,07,07,15,18,25.70
2011,07,07,15,19,22.50
2011,07,07,15,20,32.20
2011,07,07,15,21,35.40
2011,07,07,15,22,30.60
2011,07,07,15,23,27.40
2011,07,07,15,24,33.80
2011,07,07,15,25,37.00
2011,07,07,15,26,38.60
2011,07,07,15,27,9.60
2011,07,07,15,28,30.60
2011,07,07,15,29,24.20
2011,07,07,15,30,20.90
2011,07,07,15,31,20.90
2011,07,07,15,32,27.40
2011,07,07,15,33,22.50
2011,07,07,15,34,33.80
2011,07,07,15,35,41.80
2011,07,07,15,36,27.40
2011,07,07,15,37,27.40
2011,07,07,15,38,29.00
2011,07,07,15,39,33.80
2011,07,07,15,40,32.20
2011,07,07,15,41,27.40
2011,07,07,15,42,41.80
2011,07,07,15,43,27.40
2011,07,07,15,44,20.90
2011,07,07,15,45,19.30
2011,07,07,15,46,35.40
2011,07,07,15,47,29.00
2011,07,07,15,48,29.00
2011,07,07,15,49,29.00
2011,07,07,15,50,32.20
2011,07,07,15,51,16.10
2011,07,07,15,52,20.90
2011,07,07,15,53,19.30
2011,07,07,15,54,25.70
2011,07,07,15,55,33.80
2011,07,07,15,56,30.60
2011,07,07,15,57,38.60
2011,07,07,15,58,22.50
2011,07,07,15,59,35.40
2011,07,07,16,00,40.20
2011,07,07,16,01,43.50
2011,07,07,16,02,45.10
2011,07,07,16,03,20.90
2011,07,07,16,04,24.20
2011,07,07,16,05,33.80
2011,07,07,16,06,41.80
2011,07,07,16,07,29.00
2011,07,07,16,08,29.00
2011,07,07,16,09,27.40
2011,07,07,16,10,30.60
2011,07,07,16,11,32.20
2011,07,07,16,12,22.50
2011,07,07,16,13,41.80
2011,07,07,16,14,25.70
2011,07,07,16,15,27.40
2011,07,07,16,16,29.00
2011,07,07,16,17,30.60
2011,07,07,16,18,25.70
2011,07,07,16,19,32.20
2011,07,07,16,20,24.20
2011,07,07,16,21,37.00
2011,07,07,16,22,22.50
2011,07,07,16,23,33.80
2011,07,07,16,24,38.60
2011,07,07,16,25,27.40
2011,07,07,16,26,25.70
2011,07,07,16,27,19.30
2011,07,07,16,28,33.80
2011,07,07,16,29,27.40
2011,07,07,16,30,24.20
2011,07,07,16,31,29.00
2011,07,07,16,32,25.70
2011,07,07,16,33,29.00
2011,07,07,16,34,25.70
2011,07,07,16,35,29.00
2011,07,07,16,36,25.70
2011,07,07,16,37,35.40
2011,07,07,16,38,37.00
2011,07,07,16,39,38.60
2011,07,07,16,40,37.00
2011,07,07,16,41,49.90
2011,07,07,16,42,30.60
2011,07,07,16,43,30.60
2011,07,07,16,44,22.50
2011,07,07,16,45,27.40
2011,07,07,16,46,24.20
2011,07,07,16,47,40.20
2011,07,07,16,48,37.00
2011,07,07,16,49,40.20
2011,07,07,16,50,30.60
2011,07,07,16,51,24.20
2011,07,07,16,52,30.60
2011,07,07,16,53,30.60
2011,07,07,16,54,38.60
2011,07,07,16,55,32.20
2011,07,07,16,56,40.20
2011,07,07,16,57,41.80
2011,07,07,16,58,37.00
2011,07,07,16,59,25.70
2011,07,07,17,00,38.60
2011,07,07,17,01,24.20
2011,07,07,17,02,27.40
2011,07,07,17,03,30.60
2011,07,07,17,04,22.50
2011,07,07,17,05,37.00
2011,07,07,17,06,37.00
2011,07,07,17,07,20.90
2011,07,07,17,08,24.20
2011,07,07,17,09,19.30
2011,07,07,17,10,32.20
2011,07,07,17,11,35.40
2011,07,07,17,12,24.20
2011,07,07,17,13,22.50
2011,07,07,17,14,24.20
2011,07,07,17,15,38.60
2011,07,07,17,16,24.20
2011,07,07,17,17,41.80
2011,07,07,17,18,27.40
2011,07,07,17,19,32.20
2011,07,07,17,20,25.70
2011,07,07,17,21,29.00
2011,07,07,17,22,25.70
2011,07,07,17,23,29.00
2011,07,07,17,24,22.50
2011,07,07,17,25,25.70
2011,07,07,17,26,16.10
2011,07,07,17,27,16.10
2011,07,07,17,28,22.50
2011,07,07,17,29,25.70
2011,07,07,17,30,20.90
2011,07,07,17,31,20.90
2011,07,07,17,32,27.40
2011,07,07,17,33,25.70
2011,07,07,17,34,46.70
2011,07,07,17,35,43.50
2011,07,07,17,36,38.60
2011,07,07,17,37,27.40
2011,07,07,17,38,37.00
2011,07,07,17,39,29.00
2011,07,07,17,40,37.00
2011,07,07,17,41,24.20
2011,07,07,17,42,41.80
2011,07,07,17,43,40.20
2011,07,07,17,44,43.50
2011,07,07,17,45,33.80
2011,07,07,17,46,24.20
2011,07,07,17,47,30.60
2011,07,07,17,48,40.20
2011,07,07,17,49,30.60
2011,07,07,17,50,25.70
2011,07,07,17,51,43.50
2011,07,07,17,52,33.80
2011,07,07,17,53,24.20
2011,07,07,17,54,33.80
2011,07,07,17,55,25.70
2011,07,07,17,56,40.20
2011,07,07,17,57,37.00
2011,07,07,17,58,24.20
2011,07,07,17,59,32.20
2011,07,07,18,00,29.00
2011,07,07,18,01,25.70
2011,07,07,18,02,30.60
2011,07,07,18,03,27.40
2011,07,07,18,04,25.70